Location: Dion R Holm Powerhouse
(37.8966°N, 119.9688°W)
Time: 22:47:38
(UTC+00:00)

Cosmos 1515 - Pass Details

Date: 14 September 2024
Orbit: 431 x 436 km, 82.5° (Epoch: 03 October)

Event Time Altitude Azimuth Distance (km) Brightness Sun altitude
Rises 11:42:51 0° 148° (SSE) 2,392 7.2 -23.4°
Reaches altitude 10° 11:45:33 10° 123° (ESE) 1,529 6.5 -22.9°
Maximum altitude 11:47:27 15° 88° (E) 1,282 6.5 -22.6°
Drops below altitude 10° 11:49:22 10° 53° (NE) 1,536 7.2 -22.2°
Sets 11:52:05 0° 29° (NNE) 2,409 7.9 -21.7°
